Theta_e
306 305 306 307 308 308 308 307 307 308 309 309 313 314 313 312 311 305 302 308 307 305 305 308 311 307 307 306 302 308 305 305 302 295 294 295 294 296 294 298 299 299 295 294 295 292 290 309 309 302 305 307 309 309
307 306 305 306 307 307 308 307 307 307 307 309 310 314 314 312 311 308 301 309 314 309 306 310 310 314 313 311 306 309 306 308 308 302 300 300 295 296 296 292 301 294 299 297 298 298 307 309 306 310 308 306 307 306
305 307 306 305 305 307 307 307 307 307 307 308 309 314 314 312 311 308 304 306 310 307 305 304 303 312 314 313 316 306 309 310 312 312 303 302 296 300 294 296 298 302 304 299 299 304 305 306 309 308 308 307 309 308
305 306 306 305 305 306 307 307 307 306 306 307 308 312 313 312 311 309 302 308 308 307 298 300 312 310 315 313 313 313 310 313 311 309 301 299 295 301 295 298 297 300 301 300 299 302 304 307 307 307 308 308 308 309
304 305 306 305 305 305 306 307 306 306 305 306 307 312 312 312 310 307 305 307 310 306 300 302 310 311 312 311 310 309 310 308 304 301 300 297 299 299 299 298 295 301 299 297 295 304 302 301 303 306 303 304 305 306
304 305 306 305 305 305 306 306 306 306 305 304 307 312 311 310 309 303 300 308 309 311 302 299 309 308 309 310 309 307 308 308 305 301 299 301 305 301 295 292 301 304 303 303 300 305 304 304 305 306 303 303 303 301
304 305 305 305 304 305 306 306 306 305 304 304 306 311 310 308 304 299 299 304 307 314 302 297 299 308 309 309 306 306 308 305 304 302 299 300 300 301 297 293 301 303 303 303 304 302 300 303 300 303 304 305 305 303
305 305 304 304 304 305 305 305 305 305 304 305 309 309 308 306 303 302 307 308 308 307 304 295 297 300 307 301 300 306 302 303 303 301 302 299 301 300 294 300 303 304 305 305 304 302 299 300 300 300 301 301 300 300
305 304 303 304 304 305 305 305 305 304 305 306 306 305 304 303 300 302 308 309 313 306 296 295 292 293 303 301 303 303 303 297 303 298 298 299 296 293 299 301 302 304 303 301 303 301 299 299 299 299 299 300 299 299
303 303 304 304 304 304 304 304 304 305 307 305 302 298 293 299 308 308 305 301 302 303 302 296 298 296 301 299 299 300 301 295 291 297 301 295 295 301 304 304 305 306 306 302 296 295 297 297 298 298 297 298 299 299
304 304 304 304 304 304 304 304 303 305 305 299 294 293 301 306 303 299 294 294 296 293 298 298 299 297 304 296 297 301 296 296 290 294 294 292 292 299 304 304 305 302 300 300 299 298 296 298 298 299 300 301 302 301
303 303 303 303 304 304 303 302 305 302 299 299 298 301 300 298 294 289 289 292 291 290 297 294 297 300 301 305 298 299 294 295 289 298 293 288 295 301 301 301 301 300 299 299 300 300 300 301 300 300 300 301 301 303
303 302 303 303 304 303 302 305 304 304 304 303 297 292 293 292 286 287 285 289 290 296 299 297 295 299 299 300 297 296 291 290 299 291 289 292 299 300 300 300 300 301 302 302 302 303 303 303 304 303 302 303 303 303
302 302 303 303 303 303 305 305 305 305 303 294 290 285 288 287 289 291 292 294 299 300 300 299 296 297 297 295 295 290 294 295 289 286 288 295 298 300 301 302 302 302 303 302 302 303 302 302 302 302 302 302 301 300
304 305 304 303 304 305 305 305 305 304 300 294 294 287 290 296 298 299 301 299 300 302 299 297 298 298 294 292 295 294 291 287 289 288 296 300 302 303 303 304 303 302 302 301 302 301 301 301 301 300 302 302 302 302
303 302 301 304 304 304 304 303 303 303 298 295 295 292 296 296 297 297 298 297 301 300 300 300 294 292 291 292 290 288 288 286 290 297 300 301 301 302 302 303 302 303 301 301 301 301 300 299 299 299 300 301 301 302
302 298 303 303 303 303 301 301 300 296 294 293 293 299 298 298 297 298 299 300 303 299 295 296 291 289 295 289 288 291 288 294 298 299 301 301 300 300 301 302 302 301 300 299 300 300 299 300 299 298 297 299 300 301
297 301 302 303 302 301 303 301 297 295 291 295 294 296 300 300 299 299 301 302 301 299 298 294 298 291 290 288 289 295 297 299 300 299 300 301 301 301 301 300 300 300 299 299 299 300 299 298 297 297 298 299 299 300
300 302 302 302 301 298 296 297 300 292 293 297 298 300 300 300 301 302 302 303 303 304 300 297 293 292 293 296 296 297 298 298 297 298 299 300 300 299 299 299 299 299 299 299 299 298 299 299 299 299 299 299 298 299
302 301 301 302 301 298 294 295 302 296 292 296 299 298 298 298 300 301 301 301 300 298 295 294 294 296 296 298 300 299 299 299 298 295 295 297 299 298 298 298 298 298 298 299 299 296 299 299 300 300 300 299 300 300
297 303 304 304 301 300 299 298 297 297 297 296 299 298 297 300 299 299 299 302 299 297 294 298 298 299 302 301 302 301 299 300 298 298 297 296 298 298 298 298 299 298 298 298 298 298 298 300 299 299 298 298 299 300
303 304 303 306 298 298 297 299 297 299 297 297 296 298 295 294 295 297 301 297 296 297 299 299 300 300 299 299 301 302 301 302 301 299 296 297 296 297 297 298 298 298 298 299 299 300 299 300 300 299 299 299 299 300
304 304 302 299 293 290 290 300 294 295 292 294 296 293 294 294 297 301 296 297 298 302 302 301 301 302 301 301 302 301 302 300 298 298 298 298 299 299 299 300 300 299 299 300 302 301 300 295 296 297 298 299 299 303
303 298 294 292 293 288 294 292 294 293 294 293 292 290 292 296 298 296 293 295 297 300 300 301 301 299 300 300 298 299 300 300 299 299 300 299 298 299 301 302 303 304 303 303 302 298 298 297 295 297 299 298 300 301
291 290 291 285 293 291 288 289 290 292 288 292 291 291 294 298 293 292 291 295 298 299 300 301 299 298 297 297 298 298 301 300 298 297 300 300 300 300 303 304 305 304 306 303 299 297 297 297 298 298 298 299 299 300
286 292 289 292 291 291 290 288 288 290 291 291 292 295 298 295 290 288 294 298 298 300 299 298 297 297 297 298 297 297 299 301 300 298 299 301 301 301 301 301 301 303 308 306 301 297 297 297 297 297 297 296 291 299
288 291 295 299 297 297 295 295 295 293 291 290 293 293 292 288 288 294 298 300 300 301 302 301 301 299 297 298 300 301 302 304 303 302 305 306 306 306 305 303 302 305 309 305 301 300 298 298 298 298 298 299 300 301
294 295 291 295 295 298 293 294 293 292 294 298 295 291 290 288 290 300 303 304 305 303 300 302 304 301 300 300 301 301 302 304 304 306 306 306 307 307 307 306 306 295 305 305 303 302 301 300 299 299 299 298 299 301
295 298 297 294 295 295 295 294 294 297 300 299 295 293 294 299 302 301 303 304 304 303 300 299 302 301 301 301 302 302 303 302 301 299 299 299 300 302 306 308 308 305 305 303 290 297 302 301 301 301 301 301 301 300
296 300 295 294 291 290 295 298 297 301 302 301 300 299 298 300 302 305 302 302 300 302 302 302 301 300 298 298 298 299 303 303 301 300 299 299 300 304 308 307 305 305 305 304 304 301 289 298 296 302 300 300 299 299
300 300 297 295 293 297 298 300 301 301 301 300 301 298 297 299 302 305 304 304 303 303 303 302 301 301 299 298 298 297 298 303 302 303 305 306 306 308 308 308 307 308 305 305 304 303 302 302 302 301 301 301 300 299
299 296 294 293 295 300 301 300 299 298 299 298 297 299 299 298 295 300 303 303 302 301 296 301 302 300 301 301 302 303 293 304 300 300 304 306 307 309 309 308 309 310 307 305 304 304 303 302 302 301 301 301 301 300
297 299 298 297 296 296 299 299 297 296 298 297 297 298 298 296 294 300 306 306 304 303 303 304 305 304 302 302 302 303 300 303 295 288 291 291 290 292 299 306 307 308 306 304 304 303 302 301 299 299 298 299 298 296
Wind_Speed
18 18 18 17 19 19 18 17 15 12 12 12 12 14 14 12 11 5 5 4 3 3 10 10 10 8 6 5 4 6 6 5 2 2 1 3 3 5 3 4 5 8 7 5 4 5 7 2 4 4 4 4 5 6
18 19 20 18 18 19 19 18 16 13 11 13 11 15 15 13 12 8 4 4 4 3 6 13 13 8 3 4 1 5 0 8 3 1 2 2 3 3 2 4 4 1 6 5 6 5 6 3 8 8 7 5 2 1
16 20 20 19 19 20 19 19 16 14 12 11 10 14 16 14 14 12 3 4 4 4 8 7 7 8 3 2 5 2 3 4 4 1 1 3 2 4 2 2 5 6 7 4 6 7 5 4 8 7 7 5 6 5
18 17 22 20 20 19 19 19 17 15 13 12 10 13 15 14 13 12 4 1 2 4 4 5 5 5 6 1 4 2 2 3 1 2 1 1 1 3 3 3 1 4 4 2 2 2 4 8 7 6 7 8 7 7
19 18 23 21 20 19 18 19 18 15 12 11 10 13 16 14 11 4 4 4 4 3 4 5 3 5 7 3 1 1 3 2 1 3 1 3 2 2 3 2 3 3 3 3 3 3 4 1 4 5 4 4 5 6
20 20 23 22 20 20 19 20 19 15 13 11 10 16 16 14 12 3 3 5 7 2 3 4 3 5 4 4 2 3 3 2 2 2 3 3 4 3 3 3 1 3 5 2 3 5 2 4 4 1 2 1 3 4
22 22 25 22 20 19 19 20 18 15 12 10 9 16 16 15 4 2 2 2 5 3 1 4 3 4 6 3 1 2 2 2 2 3 3 3 4 1 2 5 5 5 7 7 5 3 5 6 2 4 3 2 2 3
20 23 22 21 19 20 21 21 18 15 10 9 11 18 13 10 5 3 3 2 4 2 2 4 1 1 2 2 2 3 2 3 2 3 3 1 2 2 5 6 5 5 8 6 2 5 3 4 6 5 5 5 7 7
20 20 20 19 18 20 22 21 17 12 11 10 24 19 4 2 2 1 3 8 2 2 3 3 3 3 2 2 2 2 3 2 4 3 4 1 3 6 5 7 6 7 6 4 2 2 5 6 7 8 7 8 5 5
18 18 18 19 21 22 21 18 16 13 19 28 12 3 3 2 3 7 2 1 2 3 3 3 3 3 1 4 2 3 2 3 2 5 2 4 9 9 7 7 7 6 2 5 5 4 6 6 6 6 7 7 6 5
17 19 20 22 21 21 19 19 13 18 26 3 3 3 3 4 3 1 2 3 3 3 4 4 5 4 2 2 2 4 2 2 3 6 5 4 3 9 13 15 4 7 8 7 4 2 3 5 6 6 6 6 6 6
16 17 17 18 20 20 15 9 23 11 3 6 8 5 2 3 3 5 4 4 6 7 5 11 6 4 1 4 3 2 4 1 4 1 2 3 2 3 9 10 8 7 6 3 2 5 5 6 6 7 7 7 7 8
14 15 16 17 16 18 10 21 22 24 20 5 5 3 4 3 6 8 9 6 6 5 7 9 10 3 4 2 1 1 2 5 4 2 3 4 5 6 7 7 8 8 8 7 7 9 9 10 11 9 11 10 8 7
15 16 17 17 18 14 28 27 30 10 4 4 4 5 4 6 8 7 8 9 7 6 8 10 4 4 3 3 2 4 5 3 3 4 5 2 5 7 6 6 6 7 9 9 8 9 11 11 11 11 10 9 11 12
20 20 21 18 19 26 26 24 11 2 1 3 4 5 9 8 5 10 8 7 6 11 11 8 4 4 3 3 4 5 5 4 4 3 3 5 8 9 9 8 7 7 6 6 6 8 9 10 11 12 11 11 10 11
29 26 21 29 26 23 13 3 1 2 2 2 5 6 8 8 7 9 9 9 8 10 8 4 4 5 5 4 5 5 2 4 2 6 6 7 9 7 6 6 6 6 7 7 7 7 9 10 11 12 13 12 12 12
15 6 18 18 12 11 5 2 3 2 1 3 3 4 5 4 5 6 10 10 9 9 6 4 6 5 4 4 5 5 3 5 6 5 5 6 5 5 6 6 6 7 8 9 11 10 10 11 12 12 14 13 12 11
15 12 18 12 2 5 3 2 1 1 2 3 2 5 3 6 7 8 7 8 7 6 5 4 3 4 4 4 3 4 6 6 6 5 5 6 8 7 5 7 9 11 12 12 12 10 10 11 11 9 11 11 9 9
7 6 11 9 7 3 3 2 2 2 2 2 2 2 3 3 5 4 5 4 4 3 3 2 3 2 4 3 5 6 6 7 7 7 6 7 6 8 9 9 9 10 10 10 10 8 8 11 9 8 8 8 8 6
9 11 13 12 8 4 4 3 2 2 0 0 3 3 4 3 4 4 5 4 2 3 3 4 5 6 4 5 5 4 4 5 5 6 8 8 7 9 9 9 8 10 9 9 8 8 7 6 4 4 5 7 5 4
7 3 7 9 5 4 2 2 1 1 2 2 5 5 3 2 5 4 5 4 4 2 5 3 5 6 5 4 4 5 4 4 4 4 7 8 8 8 9 8 8 6 6 6 6 7 6 2 1 2 4 5 5 4
3 3 3 2 5 5 4 6 3 3 3 4 5 3 3 5 7 4 2 4 3 4 3 3 4 3 4 5 5 4 6 6 3 4 6 7 7 8 8 7 6 6 5 5 5 1 1 2 2 3 4 4 4 4
7 2 2 6 4 4 2 6 4 4 4 1 3 3 2 3 2 2 2 3 2 3 3 4 5 4 4 5 7 8 3 4 5 6 6 6 7 7 7 7 4 4 4 1 1 2 3 3 4 3 3 4 4 6
1 3 3 3 3 3 2 2 2 2 2 2 1 3 3 2 1 1 2 2 2 3 3 4 2 4 3 6 6 6 6 5 6 7 6 6 6 7 5 5 2 2 3 2 4 5 5 4 3 3 4 4 6 7
2 3 4 2 2 1 4 4 2 1 2 3 3 2 3 3 2 2 2 2 2 3 2 3 4 3 4 6 6 7 9 6 6 7 6 5 5 4 2 1 2 2 2 4 5 5 3 3 3 5 6 7 8 10
2 3 2 2 4 3 5 5 4 5 4 4 2 3 2 2 3 2 2 2 1 2 3 2 2 3 5 5 7 8 8 6 5 5 6 4 3 2 2 2 1 1 2 4 7 7 6 6 7 8 8 8 7 10
2 1 1 3 2 2 2 3 6 3 3 3 3 3 3 3 3 2 3 2 2 1 2 1 1 2 5 6 6 6 7 6 4 3 4 2 3 3 1 2 1 2 3 9 9 7 8 8 8 8 8 7 7 6
2 3 3 2 3 4 4 4 4 3 1 3 5 1 3 3 2 2 2 3 3 3 0 2 2 1 4 4 4 5 5 6 4 2 4 6 6 4 4 1 1 5 8 8 9 8 8 8 8 9 10 9 6 7
4 3 4 3 2 2 2 3 3 2 1 2 3 4 3 3 3 3 3 2 2 3 1 2 3 3 3 3 3 4 4 5 5 6 8 4 3 4 5 4 2 9 7 8 7 6 11 10 10 10 11 9 9 8
7 2 2 4 5 8 7 5 5 5 5 7 5 8 7 5 4 3 3 3 1 2 3 2 2 4 4 5 5 6 3 3 3 2 4 4 1 3 5 5 5 10 8 9 9 6 6 9 9 11 11 9 7 4
5 3 3 7 8 6 5 4 4 5 6 7 7 7 7 6 5 3 2 3 3 2 3 4 2 3 5 6 5 5 5 5 6 5 4 1 2 3 3 4 3 3 6 10 8 7 7 9 12 11 9 7 6 5
2 7 6 6 2 2 5 4 5 6 4 4 7 7 5 6 5 2 4 2 4 3 3 4 4 2 3 4 4 3 4 2 3 3 4 2 3 4 5 5 5 6 7 9 9 8 10 9 9 9 10 13 12 9
4 4 6 7 6 5 6 6 8 7 5 6 8 8 4 5 5 2 2 3 3 4 3 3 4 5 2 4 5 5 5 4 5 4 5 5 4 4 5 6 7 3 7 6 7 9 9 10 8 9 9 9 10 11
Wind_Direction
248 244 239 238 226 220 220 221 223 228 236 243 236 208 204 194 188 187 276 263 231 284 294 298 334 356 344 4 22 319 35 4 78 114 220 246 249 254 308 265 186 173 161 190 195 221 254 320 48 79 202 2 23 22
252 241 237 234 233 221 214 216 217 218 228 230 251 208 201 190 180 180 269 251 264 221 284 316 303 286 354 46 13 320 112 25 11 27 360 311 293 328 274 280 318 295 178 189 145 199 195 168 154 166 157 175 242 1
281 241 228 227 230 221 210 210 211 214 215 224 239 221 197 188 177 186 284 314 309 243 279 253 269 252 168 109 123 30 58 353 38 344 254 274 311 27 5 318 20 359 40 62 53 12 19 137 67 72 62 46 16 356
269 268 224 221 220 218 207 203 205 209 211 224 232 218 193 187 183 186 220 341 288 280 264 269 278 157 153 57 97 151 93 35 259 273 351 296 355 26 314 287 43 237 23 313 275 42 15 58 50 43 33 27 10 358
267 267 219 213 209 209 206 201 199 202 203 213 232 215 191 181 171 194 263 262 262 286 319 296 205 115 115 132 249 258 114 89 311 330 241 237 230 343 270 323 296 336 337 34 275 295 160 111 14 15 18 37 1 345
258 255 211 203 204 202 203 195 191 194 195 215 232 202 172 163 144 176 240 216 211 241 306 302 345 108 129 142 245 241 187 160 232 214 226 235 249 140 251 247 237 41 16 80 265 320 294 198 195 224 286 319 330 37
250 238 197 195 198 200 197 186 183 185 191 209 233 180 160 157 158 194 184 317 325 163 245 275 219 152 153 150 235 241 158 259 181 245 224 246 292 45 247 244 248 318 326 316 313 15 2 19 10 5 350 318 242 242
239 186 180 187 194 194 187 176 177 175 188 200 195 141 130 129 27 280 210 250 324 167 230 254 109 216 95 186 246 198 194 177 257 229 319 270 252 220 250 203 209 240 262 257 10 22 336 329 340 311 280 257 241 240
163 168 175 182 183 179 171 169 170 168 176 192 121 112 101 80 165 197 243 293 242 235 222 231 209 143 201 249 258 165 188 213 225 209 214 216 223 227 214 196 208 245 256 220 289 292 344 356 351 350 350 341 326 300
158 170 179 176 167 161 161 162 158 161 149 126 117 140 124 188 331 17 314 253 205 244 239 252 208 165 256 176 251 140 169 230 247 228 210 231 245 254 247 244 233 244 146 103 104 12 3 344 330 322 309 304 304 299
143 148 151 153 153 154 160 155 152 160 142 80 120 89 80 112 115 100 164 174 198 239 232 190 234 158 198 238 135 5 243 205 254 245 178 249 238 234 234 237 225 106 85 69 61 2 305 280 275 278 295 309 319 317
141 146 148 154 158 160 160 179 164 146 105 141 111 100 143 111 115 159 184 193 200 213 186 189 181 157 123 92 134 198 253 224 257 344 262 261 244 76 71 88 94 87 77 45 310 285 307 330 333 328 332 340 342 340
151 159 157 160 154 154 175 156 124 124 125 80 72 106 155 173 180 186 180 196 193 211 163 166 180 95 33 73 115 229 241 240 278 195 250 228 166 91 76 73 66 51 33 9 355 2 359 349 344 346 333 328 331 332
158 168 164 166 151 193 147 133 133 134 118 137 141 120 188 187 212 194 189 170 216 164 148 140 104 126 144 73 80 213 234 258 244 227 216 81 76 81 75 57 47 26 39 28 4 348 334 324 316 311 308 309 305 295
96 111 149 164 141 124 125 125 154 14 211 115 159 187 212 234 222 209 188 141 121 122 122 109 57 72 76 126 232 229 207 229 237 228 90 60 51 51 41 33 28 15 1 350 336 316 305 306 303 300 299 297 295 290
97 88 85 98 106 96 89 76 65 277 354 211 217 222 237 179 144 126 132 121 112 108 106 72 131 173 192 202 197 211 231 211 359 75 79 58 49 36 20 12 355 346 336 318 305 306 308 304 299 299 301 295 291 289
84 74 97 106 113 118 101 182 193 34 276 268 268 293 83 78 109 117 135 138 138 138 167 177 170 174 158 211 184 183 224 68 62 73 102 93 74 34 3 336 326 327 314 311 306 306 300 296 294 291 287 288 285 284
96 117 126 135 90 2 343 15 114 78 35 284 27 36 87 155 150 115 125 146 155 178 205 166 189 182 192 191 102 34 33 36 51 38 35 36 16 352 341 328 320 310 306 306 301 298 297 296 292 287 288 288 290 282
138 172 179 192 215 301 168 301 176 53 354 288 217 206 72 65 95 126 91 79 42 328 92 22 59 48 50 55 31 18 16 14 5 360 353 355 346 330 320 312 304 301 302 303 304 297 293 290 285 287 287 285 277 277
199 221 228 218 202 255 102 261 214 132 336 124 268 98 117 113 105 89 84 62 39 355 50 44 45 44 50 34 28 29 13 4 348 333 335 331 320 309 306 307 297 299 297 294 287 275 280 283 293 316 332 334 342 359
174 212 227 184 193 247 81 312 88 352 342 107 79 60 70 91 77 72 81 72 44 8 62 65 76 65 29 9 23 20 336 339 316 285 301 306 307 306 297 291 284 276 275 282 289 295 295 34 338 347 357 357 353 347
24 345 292 354 51 9 16 357 340 0 347 61 47 36 40 62 58 22 359 71 39 65 62 63 71 21 354 351 357 337 310 300 341 295 282 277 290 297 296 293 292 290 290 285 292 349 87 58 20 17 10 345 347 333
307 275 52 21 58 49 354 351 34 15 18 41 63 49 42 46 70 10 58 73 75 54 79 58 33 344 344 329 317 301 335 342 305 292 288 285 280 280 280 283 273 271 285 272 250 46 50 89 57 37 354 19 5 56
17 15 60 43 54 77 79 39 18 25 28 53 143 107 93 97 93 79 73 71 87 112 98 66 2 305 307 333 315 319 307 301 288 281 270 274 284 293 296 298 294 225 181 121 74 62 52 70 61 29 54 51 59 73
24 5 109 13 109 114 104 122 134 165 150 191 120 134 147 177 142 122 91 116 85 66 54 43 37 4 318 308 305 300 298 276 270 276 277 253 263 284 320 61 224 208 203 121 104 92 76 55 66 82 77 82 86 85
37 200 155 148 153 213 167 146 155 208 170 164 132 108 150 174 123 86 101 116 107 74 71 57 345 300 312 310 304 307 305 293 263 262 279 242 223 240 197 195 126 290 347 104 120 114 113 101 95 93 88 85 83 105
339 102 218 235 225 217 206 138 157 179 189 121 153 126 187 166 94 128 115 84 108 99 78 152 264 306 312 312 310 310 327 341 333 287 301 31 116 139 78 65 82 319 15 97 123 137 118 113 110 106 103 99 106 113
261 222 180 172 209 226 152 158 181 209 159 118 127 150 78 108 154 75 107 119 125 120 94 304 114 22 319 312 312 326 326 333 334 357 47 47 43 31 7 328 344 27 98 117 116 120 114 113 113 113 112 108 110 118
210 209 161 146 206 169 95 53 64 81 9 75 80 79 89 58 85 106 96 110 115 137 62 26 47 340 345 334 334 337 337 354 13 90 78 69 56 3 320 311 69 118 111 95 93 111 112 115 115 113 113 111 119 125
93 37 69 83 78 72 54 80 84 76 73 76 90 102 100 104 111 123 140 149 185 182 140 134 88 34 357 341 333 335 336 4 22 59 99 101 182 280 319 345 72 129 123 119 121 112 87 104 96 104 107 111 119 129
69 47 348 85 84 82 109 108 102 114 127 119 118 117 121 128 129 145 130 117 127 112 138 125 82 41 6 358 348 339 347 6 15 43 82 133 335 338 351 328 336 74 136 142 149 146 129 118 127 130 132 125 97 93
320 159 155 154 135 90 58 50 28 4 351 121 106 117 145 142 109 63 359 67 110 84 92 91 88 61 358 322 318 305 312 21 24 25 55 44 27 16 343 326 316 328 120 151 164 151 138 134 132 138 146 156 158 138
292 254 240 145 145 196 187 187 175 172 178 139 136 153 141 83 70 107 138 90 64 94 62 70 114 113 84 332 345 339 1 81 84 55 21 9 302 321 319 335 323 87 90 93 96 108 108 111 111 116 122 122 112 106